Probability
0 0 0 0 0 0 0 0 0 0 0 0 0 0 0 0 0 0 0 0 0 0 0 0 0 0 0 1 3 5 7 8 7 6 4 4 4 2 1 2 2 2 3
0 0 0 0 0 0 0 0 0 0 0 0 0 0 0 0 0 0 0 0 0 0 0 0 0 0 1 2 3 6 8 8 8 6 4 3 3 1 1 1 1 2 2
0 0 0 0 0 0 0 0 0 0 0 0 0 0 0 0 0 0 0 0 0 0 0 0 0 0 1 2 4 6 7 8 9 7 4 3 2 1 0 0 0 1 1
0 0 0 0 0 0 0 0 0 0 0 0 0 0 0 0 0 0 0 0 0 0 0 0 0 0 1 2 3 5 5 7 8 6 3 1 1 0 0 0 0 0 0
0 0 0 0 0 0 0 0 0 0 0 0 0 0 0 0 0 0 0 0 0 0 0 0 0 0 1 2 2 3 3 4 4 2 1 0 0 0 0 0 0 0 0
0 0 0 0 0 0 0 0 0 0 0 0 0 0 0 0 0 0 0 0 0 0 0 0 0 0 1 1 1 1 1 1 1 0 0 1 1 0 0 0 0 0 0
0 0 0 0 0 0 0 0 0 0 0 0 0 0 0 0 0 0 0 0 0 0 0 0 0 0 0 0 0 0 0 0 0 0 1 2 2 1 0 0 0 0 0
0 0 0 0 0 0 0 0 0 0 0 0 0 0 0 0 0 0 0 0 0 0 0 0 0 0 0 0 0 0 0 0 0 0 1 2 2 1 0 0 0 0 0
0 0 0 0 0 0 0 0 0 0 0 0 0 0 0 0 0 0 0 0 0 0 0 0 0 0 0 0 0 0 0 0 0 0 0 1 1 1 0 0 0 0 0
0 0 0 0 0 0 0 0 0 0 0 0 0 0 0 0 0 0 0 0 0 0 0 0 0 0 0 0 0 0 0 0 0 0 0 0 0 0 0 0 0 0 0
0 0 0 0 0 0 0 0 0 0 0 0 0 0 0 0 0 0 0 0 0 0 0 0 0 0 0 0 0 0 0 0 0 0 0 0 0 0 0 0 0 0 0
0 0 0 0 0 0 0 0 0 0 0 0 0 0 0 0 0 0 0 0 0 0 0 0 0 0 0 0 0 0 0 0 0 0 0 0 0 0 0 0 0 1 1
0 0 0 0 0 0 0 0 0 0 0 0 0 0 0 0 0 0 0 0 0 0 0 0 0 0 0 0 0 0 0 0 0 0 0 0 0 0 0 0 1 3 3
0 0 0 0 0 0 0 0 0 0 0 0 0 0 0 0 0 0 0 0 0 0 0 0 0 0 0 0 0 0 0 0 0 0 0 0 0 0 0 0 2 3 4
0 0 0 0 0 0 0 0 0 0 0 0 0 0 0 0 0 0 0 0 0 0 0 0 0 0 0 0 0 0 0 0 0 0 0 0 0 0 0 0 1 2 2
0 0 0 0 0 0 0 0 0 0 0 0 0 0 0 0 0 0 0 0 0 0 0 0 0 0 0 0 0 0 0 0 0 0 0 0 0 0 0 0 0 1 1
0 0 0 0 0 0 0 0 0 0 0 0 0 0 0 0 0 0 0 0 0 0 0 0 0 0 0 0 0 0 0 0 0 0 0 0 0 0 0 0 0 0 0
0 0 0 0 0 0 0 0 0 0 0 0 0 0 0 0 0 0 0 0 0 0 0 0 0 0 0 0 0 0 0 0 0 0 0 0 0 0 0 0 0 0 0
0 0 0 0 0 0 0 0 0 0 0 0 0 0 0 0 0 0 0 0 0 0 0 0 0 0 0 0 0 0 0 0 0 0 0 0 0 0 0 0 0 0 0
0 0 0 0 0 0 0 0 0 0 0 0 0 0 0 0 0 0 0 0 0 0 0 0 0 0 0 0 0 0 0 0 0 0 0 0 0 0 0 0 0 0 0
0 0 0 0 0 0 0 0 0 0 0 0 0 0 0 0 0 0 0 0 0 0 0 0 0 0 0 0 0 0 0 0 0 0 0 0 0 0 0 0 0 0 0
0 0 0 0 0 0 0 0 0 0 0 0 0 0 0 0 0 0 0 0 0 0 0 0 0 0 0 0 0 0 0 0 0 0 0 0 0 1 0 0 0 0 0
0 0 0 0 0 0 0 0 0 0 0 0 0 0 0 0 0 0 0 0 0 0 0 0 0 0 0 0 0 0 0 0 0 0 0 0 0 0 0 0 0 0 0
0 0 0 0 0 0 0 0 0 0 0 0 0 0 0 0 0 0 0 0 0 0 0 0 0 0 0 0 0 0 0 0 0 0 0 0 0 0 0 0 0 0 0
0 0 0 0 0 0 0 0 0 0 0 0 0 0 0 0 0 0 0 0 0 0 0 0 0 0 0 0 0 0 0 0 0 0 0 0 0 0 0 0 0 0 0
0 0 0 0 0 0 0 0 0 0 0 0 0 0 0 0 0 0 0 0 0 0 0 0 0 0 0 0 0 0 0 0 0 0 0 0 0 0 0 0 0 0 0
Wind_Speed
3 3 2 2 2 2 2 1 1 3 2 3 3 3 3 3 3 4 5 8 7 7 7 7 6 5 5 5 4 4 5 5 4 4 4 3 3 2 3 2 1 0 0
3 2 3 2 3 2 2 1 3 2 2 2 3 4 3 3 4 4 4 6 7 8 7 7 7 7 6 6 5 6 5 5 5 4 4 4 3 3 2 2 1 1 1
3 2 2 3 2 2 2 2 3 2 2 3 3 3 3 4 4 4 4 3 4 8 9 8 8 7 7 6 6 6 6 5 5 4 4 4 3 2 2 2 1 1 1
3 3 2 3 2 2 2 2 2 2 3 2 3 3 3 3 4 4 3 3 4 4 7 9 9 8 8 7 6 6 6 6 5 5 4 4 3 2 2 2 2 2 2
2 3 2 2 2 2 2 2 2 2 3 3 4 3 4 4 4 4 5 6 5 4 4 7 8 9 9 9 7 7 6 5 5 4 4 4 3 3 3 2 2 2 2
3 3 2 2 2 2 2 2 4 3 2 2 4 4 4 4 4 5 5 5 5 6 6 5 4 6 9 10 9 8 7 6 5 5 4 4 3 3 3 3 3 3 2
2 3 1 2 2 2 2 3 3 4 3 2 3 4 4 5 6 5 4 4 6 6 6 6 5 4 4 8 10 10 8 7 6 5 5 5 5 4 4 4 3 3 3
3 2 2 2 2 2 2 3 2 2 2 1 1 1 3 3 3 5 4 4 5 5 6 7 6 6 5 4 7 9 10 9 7 6 5 5 5 4 4 4 3 3 3
3 2 2 2 2 2 3 2 2 2 2 2 2 2 1 2 2 3 5 4 5 5 5 6 6 7 6 5 5 8 10 9 9 8 7 6 6 5 4 4 4 4 4
3 3 3 2 2 3 3 2 2 1 1 2 2 2 3 2 1 2 2 4 5 5 5 5 5 6 6 6 6 9 10 9 9 9 8 8 7 6 5 5 4 4 4
3 3 3 2 3 2 3 3 2 2 1 1 1 1 2 1 1 0 2 2 3 4 5 5 5 5 6 6 5 9 10 9 9 9 9 9 8 7 6 5 5 4 3
2 3 3 2 3 3 3 2 2 3 2 2 1 1 1 1 1 1 1 2 2 3 4 4 4 4 4 5 7 9 10 10 10 10 10 10 10 8 7 6 5 4 3
2 3 2 2 3 3 3 2 3 3 3 2 2 2 2 2 2 1 1 1 1 2 2 3 4 4 4 4 5 7 8 9 10 10 10 11 11 9 9 8 6 5 4
2 3 2 3 3 3 3 3 2 3 2 3 3 3 2 2 2 2 1 1 0 1 2 3 3 4 4 4 5 5 6 10 10 10 10 11 11 11 11 10 8 7 7
2 3 3 3 3 3 3 3 2 3 3 3 3 3 2 2 2 2 1 1 2 1 2 3 2 4 3 4 5 4 6 10 10 10 10 11 11 11 11 11 10 10 9
3 3 3 3 4 3 3 3 3 3 3 3 2 3 3 2 2 2 1 2 2 2 2 2 2 3 4 3 5 5 5 6 9 10 10 10 10 10 10 10 10 10 10
4 3 3 3 3 3 3 3 3 3 3 3 3 3 3 3 2 2 1 1 2 2 1 2 2 3 3 4 4 4 4 4 6 9 9 9 10 10 9 9 9 10 9
4 4 4 3 3 3 3 3 3 3 2 3 3 2 3 2 2 2 2 2 2 2 1 1 1 2 3 4 4 4 4 4 4 7 8 8 9 9 9 10 9 9 9
4 4 4 4 3 3 3 2 2 2 2 2 2 2 2 2 2 2 1 1 1 1 1 0 2 2 2 3 3 3 4 3 4 3 3 5 7 7 8 8 9 9 9
5 4 4 3 3 3 2 2 2 2 2 2 2 2 2 3 3 2 1 2 1 1 1 1 1 1 2 3 2 3 2 2 3 4 4 4 3 2 5 6 8 8 9
4 4 4 4 3 2 1 1 2 2 2 2 2 3 4 5 7 5 3 2 1 1 0 1 1 1 2 2 3 3 3 3 2 3 4 4 3 3 2 3 5 8 8
5 4 4 4 3 2 4 1 1 2 2 2 2 2 3 3 5 4 5 5 4 3 2 1 1 2 2 3 3 3 3 3 3 3 5 4 3 3 3 3 6 7 7
6 5 4 4 4 5 5 3 1 1 1 1 1 2 2 2 1 3 4 3 3 3 4 4 2 3 3 3 3 3 3 4 4 4 4 4 3 3 3 3 4 6 6
6 5 4 4 3 4 5 4 2 2 2 2 1 1 1 2 2 2 1 1 2 3 3 2 3 3 4 4 4 4 4 4 3 2 4 4 4 4 3 2 1 3 5
6 5 5 4 4 5 6 4 4 2 2 2 1 0 0 1 4 3 1 0 1 2 4 3 4 3 4 4 5 3 3 3 3 2 3 4 5 5 4 3 1 1 3
6 5 4 4 4 4 6 5 5 3 3 2 2 2 2 1 2 3 2 1 1 1 1 1 1 2 2 0 3 3 4 4 4 3 3 4 5 5 5 2 2 3 3
Wind_Direction
70 79 80 73 67 78 106 93 79 77 73 67 65 69 75 70 64 61 83 68 44 37 39 46 46 43 39 51 78 98 93 86 79 83 87 81 71 66 54 50 57 24 283
62 66 73 64 59 61 63 79 80 83 82 74 67 63 56 68 69 64 71 93 71 48 45 45 43 43 45 54 69 81 81 79 76 76 74 68 65 59 53 45 27 354 339
46 59 59 73 67 75 85 63 81 83 86 97 90 75 70 53 62 66 60 53 82 78 60 50 44 44 46 54 67 75 74 69 69 66 65 60 56 47 29 12 340 333 315
54 58 59 75 74 72 77 78 74 95 93 89 85 81 85 75 67 64 66 63 47 60 76 63 53 48 47 53 61 65 68 67 67 61 55 50 45 30 15 350 338 331 313
52 70 54 59 77 78 81 84 79 81 94 94 98 87 78 74 68 58 53 49 53 46 58 85 79 62 51 49 52 54 56 58 58 55 49 45 36 22 10 347 331 330 320
52 68 80 76 74 91 93 96 98 89 89 98 93 86 79 79 70 52 46 50 43 44 44 49 70 84 70 52 41 44 46 47 43 40 40 34 22 12 3 346 332 328 328
58 70 64 69 62 88 99 107 105 114 106 103 114 108 97 75 67 61 42 45 54 47 49 53 44 40 75 75 50 39 36 34 32 29 27 20 12 4 357 347 326 315 306
58 61 81 90 90 94 104 96 102 106 102 86 107 132 130 117 71 56 56 46 47 53 47 46 47 46 35 42 63 43 28 23 22 19 16 8 4 356 352 347 327 319 306
63 60 67 73 85 103 97 87 116 126 116 93 24 343 342 79 107 77 53 58 52 47 48 44 42 43 38 35 42 47 26 17 17 17 13 8 4 359 354 348 341 338 329
65 63 74 74 81 81 93 96 73 84 106 117 95 17 20 39 306 128 98 64 53 51 46 42 37 40 38 38 42 38 25 17 16 14 10 6 2 354 350 345 337 332 331
68 71 65 72 79 81 80 70 69 52 60 44 71 82 75 66 317 29 105 97 76 58 50 41 39 34 34 34 28 33 24 20 18 16 12 9 1 352 342 336 332 327 325
83 81 77 81 87 84 86 81 84 79 50 54 42 51 41 39 27 25 88 111 89 69 58 49 37 33 29 31 36 27 25 25 25 23 18 10 3 2 358 352 350 348 346
96 84 84 80 79 79 81 84 90 78 77 67 47 48 43 37 17 356 26 88 101 103 78 65 43 31 26 29 34 14 36 30 26 24 18 14 14 15 16 19 20 19 15
95 97 92 83 82 84 89 84 79 74 68 73 65 59 58 60 37 23 6 325 205 125 85 51 40 30 21 27 22 340 44 39 30 26 22 21 23 26 27 27 28 31 27
110 110 106 101 92 89 88 94 81 79 68 60 60 66 55 64 42 27 16 338 318 327 67 51 28 27 12 33 4 16 36 41 28 28 28 27 27 29 30 30 33 31 28
128 130 118 109 105 101 96 86 83 70 82 74 46 47 47 56 56 48 16 3 346 343 38 45 29 29 18 21 26 20 43 56 42 32 31 29 28 29 31 31 30 30 28
148 143 134 124 112 108 107 104 93 90 81 85 78 66 62 44 41 43 28 23 20 14 48 57 42 30 21 20 22 16 22 27 53 41 32 30 29 29 30 29 28 24 21
153 149 140 134 124 117 113 109 101 96 83 72 68 64 67 73 47 30 21 28 35 10 18 47 39 22 20 22 16 11 22 23 30 53 36 32 30 28 28 29 29 25 20
158 154 147 142 137 136 129 121 114 101 85 70 68 62 56 62 62 57 24 32 39 40 22 21 33 24 11 16 6 10 29 16 7 44 47 47 37 28 26 26 27 25 20
163 160 152 147 144 145 146 141 128 115 103 84 63 48 39 30 22 30 32 44 44 56 47 36 29 25 21 11 350 356 1 11 2 358 3 2 32 35 37 30 26 20 15
164 159 153 150 143 144 132 154 155 146 127 109 97 76 58 47 32 21 11 16 26 16 38 22 13 360 4 356 355 344 343 341 0 353 338 343 348 353 16 39 25 15 7
159 154 156 152 150 134 93 38 292 161 152 136 119 105 102 105 91 77 54 34 10 354 351 352 335 337 349 352 350 327 333 332 335 352 326 330 333 340 351 7 21 11 1
159 156 160 157 160 126 128 137 271 217 156 130 127 115 95 91 176 113 115 133 79 38 350 329 331 344 343 348 330 324 325 324 329 343 322 315 325 323 331 19 26 3 355
161 166 168 164 150 137 145 153 190 203 156 148 145 136 134 110 61 16 83 67 46 40 16 335 348 354 351 340 323 318 314 304 301 322 316 307 319 316 316 323 50 352 344
166 169 168 168 166 156 154 167 209 186 175 164 153 103 0 107 74 330 279 56 60 75 89 62 20 13 15 353 322 300 304 298 308 323 336 312 315 312 300 287 235 240 300
170 168 167 179 176 164 151 175 223 202 190 173 157 145 76 45 84 307 271 271 297 352 342 172 201 207 240 192 283 296 307 305 310 313 345 315 314 317 303 293 307 302 290